Regional Weather Roundup
Issued by NWS

Home | Current Version | Previous Version | Graphics & Text | Print | Product List | Glossary On
Versions: 1 2 3 4 5 6 7 8 9 10 11 12 13 14 15 16 17 18 19 20 21 22 23 24 25 26 27 28 29 30 31 32 33 34 35 36 37 38 39 40 41 42 43 44 45 46 47 48 49 50
000
ASUS44 KMEG 041800
RWRTN
TENNESSEE HOURLY STATE WEATHER ROUNDUP
NATIONAL WEATHER SERVICE MEMPHIS TN
100 PM CDT SAT JUL 04 2015

TNZ002-004-019-021-049-052-054-088>092-041900-
WEST TENNESSEE

CITY           SKY/WX    TMP DP  RH WIND       PRES   REMARKS
MEMPHIS INTL   LGT RAIN  74  70  87 S9        30.01S
NWS MEMPHIS      N/A     73 N/A N/A MISG        N/A
JACKSON        CLOUDY    75  69  81 SW9       30.01R
DYERSBURG        N/A    N/A N/A N/A MISG        N/A
PARIS          MOSUNNY   77  68  73 W3        30.00F
LEXINGTON      PTSUNNY   75  72  88 SW5       30.00S
$$

TNZ008-025-027-028-033-062-065-066-041900-
NORTH MIDDLE TENNESSEE

CITY           SKY/WX    TMP DP  RH WIND       PRES   REMARKS
NASHVILLE      CLOUDY    80  71  74 SW7       30.00F
CLARKSVILLE    CLOUDY    79  70  74 VRB5      29.99F
COOKEVILLE     PTSUNNY   79  72  78 VRB3      30.02F
CROSSVILLE     PTSUNNY   75  66  73 W7        30.07F
$$

TNZ061-075-076-078-094-096-097-041900-
SOUTH MIDDLE TENNESSEE

CITY           SKY/WX    TMP DP  RH WIND       PRES   REMARKS
FAYETTEVILLE   PTSUNNY   75  70  83 VRB3      30.03F
TULLAHOMA      CLOUDY    73  68  83 SW8       30.05F
WINCHESTER     CLOUDY    75  70  83 SW5       30.04F
COLUMBIA       CLOUDY    75  73  94 SW7       30.00F
SHELBYVILLE    CLOUDY    77  72  83 W6          N/A
$$

TNZ017-018-042-046-047-041900-
NORTHEAST TENNESSEE

CITY           SKY/WX    TMP DP  RH WIND       PRES   REMARKS
TRI CITIES     CLOUDY    76  66  71 SW13      30.05S
ELIZABETHTON   DRIZZLE   70  66  88 S3        30.06F
$$

TNZ012-013-036-069-073-074-041900-
CENTRAL EAST TENNESSEE

CITY           SKY/WX    TMP DP  RH WIND       PRES   REMARKS
KNOXVILLE      CLOUDY    74  70  87 SW16      30.04S FOG
OAK RIDGE      CLOUDY    77  69  76 VRB6      30.04F
GATLINBURG     CLOUDY    72  68  88 W3        30.05S
$$

TNZ083-085-099-041900-
SOUTHEAST TENNESSEE

CITY           SKY/WX    TMP DP  RH WIND       PRES   REMARKS
CHATTANOOGA    CLOUDY    77  67  71 SW9       30.05F
$$

SKY/WX REPORTED AS FAIR MEANS FEW OR NO CLOUDS BELOW
12 THOUSAND FEET.




USA.gov is the U.S. government's official web portal to all federal, state and local government web resources and services.